Preview of NWS' New Version of Forecast
This preview is not operational and should not be used for support decisions.

Regional Weather Roundup (RWR)

Issued by Philadelphia/Mt Holly (PHI)

                            
000
ASUS41 KPHI 171212
RWRPHI

REGIONAL WEATHER ROUNDUP
NATIONAL WEATHER SERVICE MOUNT HOLLY NJ
700 AM EST THU JAN 17 2019

NOTE:  "FAIR" INDICATES FEW OR NO CLOUDS BELOW 12,000 FEET WITH NO
SIGNIFICANT WEATHER AND/OR OBSTRUCTIONS TO VISIBILITY.

 * = STATION DOES NOT REPORT PRECIPITATION (E.G. RAIN, SNOW, ETC.) 
        OR FOG.

NJZ015>026-171300-
SOUTHERN NEW JERSEY
  
CITY           SKY/WX    TMP DP  RH WIND       PRES   REMARKS
POMONA         FAIR      25  18  74 NE7       30.35R WCI  17          
6HR MIN TEMP:  24; 6HR MAX TEMP:  32;                                

WILDWOOD*      FAIR      30  21  69 N3        30.36R                  
MILLVILLE      FAIR      25  16  68 N6        30.34R WCI  18          
WRIGHTSTOWN    FAIR      23  13  65 NE6       30.34R WCI  16          
MOUNT HOLLY    FAIR      26  13  57 N9        30.38R WCI  17          
TRENTON        FAIR      25  10  53 N5        30.37R WCI  19          
6HR MIN TEMP:  25; 6HR MAX TEMP:  33;                                


$$
NJZ001>014-171300-
NORTHERN NEW JERSEY
  
CITY           SKY/WX    TMP DP  RH WIND       PRES   REMARKS
SUSSEX         FAIR      20   9  62 VRB3      30.34R                  
ANDOVER*         N/A     20   7  57 CALM      30.35R                  
MORRISTOWN     MOCLDY    21  12  68 NE5       30.38R WCI  15          
NEWARK         MOCLDY    24   7  48 N7G20     30.38R WCI  16          
TETERBORO      FAIR      24  10  55 NE9G20    30.38R WCI  14          
CALDWELL       FAIR      22   8  55 NW3       30.38R                  
SOMERVILLE     FAIR      23   8  52 CALM      30.36R                  
ALLAIRE*       FAIR      25   6  44 NW7       30.37R WCI  17          
TOMS RIVER*    FAIR      24  14  65 N3        30.37R                  

$$
PAZ043-044-047-054-055-060>062-066>071-171300-
EASTERN PENNSYLVANIA
  
CITY           SKY/WX    TMP DP  RH WIND       PRES   REMARKS
PHILADELPHIA   MOCLDY    27  15  61 N6        30.38R WCI  20          
6HR MIN TEMP:  27; 6HR MAX TEMP:  35;                                

NORTH PHILA    FAIR      26  12  55 N8        30.39R WCI  18          
BLUE BELL*     FAIR      27  14  59 CALM      30.38R                  
DOYLESTOWN     FAIR      23   9  55 N5        30.35R WCI  17          
QUAKERTOWN*    CLEAR     21  10  63 CALM      30.35                   
PERKASIE*      FAIR      23   9  54 N5        30.35R WCI  17          
POTTSTOWN      FAIR      22  10  60 CALM      30.38R                  
LANCASTER      FAIR      27  16  63 NE3       30.35R                  
COATESVILLE    FAIR      25  16  68 CALM      30.34R                  
READING        FAIR      23  14  68 CALM      30.36R                  
6HR MIN TEMP:  23; 6HR MAX TEMP:  31;                                

ALLENTOWN      FAIR      22   9  57 CALM      30.36R                  
6HR MIN TEMP:  22; 6HR MAX TEMP:  30;                                

MOUNT POCONO   FAIR      13   7  77 NW6       30.24R WCI   4          
6HR MIN TEMP:  12; 6HR MAX TEMP:  18;                                

HAZLETON       FAIR      16   5  62 CALM      30.30R                  
LEHIGHTON      FAIR      21   9  58 CALM      30.37R                  
WILKES BARRE   FAIR      17   8  67 N6        30.33R WCI   9          

$$
DEZALL-MDZ008-012-015-019-020-171300-
DELAWARE AND EASTERN MARYLAND
  
CITY           SKY/WX    TMP DP  RH WIND       PRES   REMARKS
WILMINGTON     FAIR      26  17  68 N7        30.37R WCI  18          
6HR MIN TEMP:  24; 6HR MAX TEMP:  35;                                

DOVER          FAIR      26  20  77 N7        30.35R WCI  19          
GEORGETOWN     FAIR      33  23  66 NE5       30.34R WCI  29          
6HR MIN TEMP:  30; 6HR MAX TEMP:  37;                                

EASTON         PTCLDY    32  27  80 N3        30.39R                  
ABERDEEN       PTCLDY    30  19  64 CALM      30.37R                  
PATUXENT       MOCLDY    28  27  96 W5        30.35  WCI  23          
OCEAN CITY     FAIR      23  21  92 CALM      30.35R                  
WALLOPS ISLAND FAIR      28  24  85 CALM      30.35R                  
CAMBRIDGE      PTCLDY    27  25  93 CALM      30.35R                  
SALISBURY      FAIR      24  22  91 CALM      30.34R                  

$$
PAZ001-021-NYZ056-072-MDZ011-DCZ001-171300-
OTHER NEARBY LOCATIONS
  
CITY           SKY/WX    TMP DP  RH WIND       PRES   REMARKS
HARRISBURG     CLOUDY    27  15  61 CALM      30.35R                  
STATE COLLEGE  CLEAR     19  14  79 CALM      30.29R                  
WILLIAMSPORT   FAIR      20  12  71 CALM      30.36R                  
BINGHAMTON     FAIR       9   5  84 NW5       30.27R WCI   1          
NEW YORK CITY  FAIR      25   8  48 MISG      30.39R                  
BALTIMORE      MOCLDY    35  23  61 NE8       30.34R WCI  29          
WASHINGTON DC  MOCLDY    35  23  61 N5        30.35R WCI  31          

$$